DAL2993 KMIA-KRDU

Flight info

Callsign DAL2993
Flight time 1h 52m
Altitude 36000
Route FOLZZ3 ALYRA GRUBR/N0458F370 Y299 SEELO GARIC BLOGS3
Aircraft A319/M-SDE3FGHIRWY/LB1

Departure

Time 2026-05-06 22:51
Airport Miami International Airport (KMIA)

Arrival

Time 2026-05-07 00:43
Airport Raleigh-Durham International Airport (KRDU)
Time Latitude Longitude Altitude Speed Heading
2026-05-06 22:06 25.79891 -80.27109 18 ft 0 kts 256°
2026-05-06 22:38 25.79892 -80.27106 15 ft 3 kts 256°
2026-05-06 22:38 25.79898 -80.27078 15 ft 4 kts 256°
2026-05-06 22:38 25.79904 -80.27049 16 ft 4 kts 257°
2026-05-06 22:38 25.79909 -80.27025 18 ft 4 kts 259°
2026-05-06 22:39 25.79908 -80.26999 17 ft 4 kts 313°
2026-05-06 22:39 25.79889 -80.26990 17 ft 4 kts 22°
2026-05-06 22:39 25.79872 -80.26999 17 ft 0 kts 23°
2026-05-06 22:42 25.79873 -80.26998 17 ft 1 kts 23°
2026-05-06 22:42 25.79888 -80.26991 17 ft 4 kts 23°
2026-05-06 22:42 25.79915 -80.26978 15 ft 5 kts 23°
2026-05-06 22:42 25.79965 -80.26990 15 ft 11 kts 315°
2026-05-06 22:43 25.80009 -80.27058 16 ft 11 kts 308°
2026-05-06 22:43 25.80067 -80.27110 16 ft 11 kts 334°
2026-05-06 22:43 25.80083 -80.27184 16 ft 12 kts 266°
2026-05-06 22:43 25.80079 -80.27295 18 ft 17 kts 267°
2026-05-06 22:44 25.80073 -80.27442 16 ft 21 kts 267°
2026-05-06 22:44 25.80066 -80.27604 15 ft 21 kts 267°
2026-05-06 22:44 25.80059 -80.27767 15 ft 21 kts 267°
2026-05-06 22:44 25.80052 -80.27930 14 ft 22 kts 267°
2026-05-06 22:45 25.80046 -80.28096 14 ft 21 kts 267°
2026-05-06 22:45 25.80039 -80.28259 15 ft 21 kts 267°
2026-05-06 22:45 25.80032 -80.28421 15 ft 21 kts 267°
2026-05-06 22:45 25.80025 -80.28580 15 ft 20 kts 267°
2026-05-06 22:46 25.80019 -80.28732 17 ft 20 kts 267°
2026-05-06 22:46 25.80013 -80.28883 16 ft 20 kts 267°
2026-05-06 22:46 25.80007 -80.29035 17 ft 20 kts 267°
2026-05-06 22:46 25.80000 -80.29187 16 ft 20 kts 267°
2026-05-06 22:47 25.79994 -80.29339 15 ft 20 kts 267°
2026-05-06 22:47 25.79988 -80.29495 14 ft 20 kts 267°
2026-05-06 22:47 25.79981 -80.29653 14 ft 20 kts 267°
2026-05-06 22:47 25.79975 -80.29811 14 ft 20 kts 267°
2026-05-06 22:48 25.79971 -80.29946 13 ft 8 kts 276°
2026-05-06 22:48 25.79975 -80.29959 13 ft 0 kts 287°
2026-05-06 22:48 25.79975 -80.29960 13 ft 0 kts 287°
2026-05-06 22:49 25.79980 -80.29978 16 ft 5 kts 287°
2026-05-06 22:49 25.79993 -80.30027 15 ft 9 kts 286°
2026-05-06 22:49 25.80013 -80.30103 15 ft 12 kts 287°
2026-05-06 22:49 25.80069 -80.30115 14 ft 10 kts 51°
2026-05-06 22:50 25.80076 -80.30025 13 ft 17 kts 87°
2026-05-06 22:50 25.80091 -80.29652 14 ft 82 kts 87°
2026-05-06 22:50 25.80126 -80.28797 18 ft 138 kts 87°
2026-05-06 22:50 25.80182 -80.27620 352 ft 153 kts 85°
2026-05-06 22:51 25.80244 -80.26442 1022 ft 153 kts 92°
2026-05-06 22:51 25.80025 -80.25250 1486 ft 166 kts 114°
2026-05-06 22:51 25.79503 -80.24046 1867 ft 181 kts 116°
2026-05-06 22:51 25.78907 -80.22716 2163 ft 206 kts 116°
2026-05-06 22:52 25.78230 -80.21218 2501 ft 232 kts 116°
2026-05-06 22:52 25.77472 -80.19535 2965 ft 254 kts 116°
2026-05-06 22:52 25.76658 -80.17735 3627 ft 266 kts 117°
2026-05-06 22:52 25.75781 -80.15895 4448 ft 272 kts 118°
2026-05-06 22:53 25.74913 -80.14012 5290 ft 278 kts 111°
2026-05-06 22:53 25.74558 -80.11894 6120 ft 282 kts 89°
2026-05-06 22:53 25.74912 -80.09758 6967 ft 284 kts 68°
2026-05-06 22:53 25.75934 -80.07898 7795 ft 284 kts 48°
2026-05-06 22:54 25.77241 -80.06258 8688 ft 284 kts 47°
2026-05-06 22:54 25.78553 -80.04612 9499 ft 286 kts 47°
2026-05-06 22:54 25.79872 -80.02949 10251 ft 288 kts 47°
2026-05-06 22:54 25.81192 -80.01275 10787 ft 300 kts 47°
2026-05-06 22:55 25.82618 -79.99464 10953 ft 323 kts 47°
2026-05-06 22:55 25.84140 -79.97528 11200 ft 340 kts 48°
2026-05-06 22:55 25.85709 -79.95528 11768 ft 345 kts 48°
2026-05-06 22:55 25.87290 -79.93511 12420 ft 347 kts 48°
2026-05-06 22:56 25.88346 -79.92165 12859 ft 349 kts 47°
2026-05-06 22:56 25.89948 -79.90124 13509 ft 351 kts 47°
2026-05-06 22:56 25.91558 -79.88078 14120 ft 353 kts 47°
2026-05-06 22:56 25.93180 -79.86016 14643 ft 357 kts 47°
2026-05-06 22:57 25.94822 -79.83928 15144 ft 361 kts 47°
2026-05-06 22:57 25.96482 -79.81815 15644 ft 365 kts 47°
2026-05-06 22:57 25.98158 -79.79676 16132 ft 369 kts 47°
2026-05-06 22:57 25.99851 -79.77515 16635 ft 372 kts 46°
2026-05-06 22:58 26.01563 -79.75334 17137 ft 376 kts 46°
2026-05-06 22:58 26.03298 -79.73124 17619 ft 380 kts 46°
2026-05-06 22:58 26.05043 -79.70896 18098 ft 384 kts 46°
2026-05-06 22:58 26.06807 -79.68640 18541 ft 388 kts 46°
2026-05-06 22:59 26.08587 -79.66363 18954 ft 392 kts 46°
2026-05-06 22:59 26.10374 -79.64064 19387 ft 396 kts 47°
2026-05-06 22:59 26.12011 -79.61569 19819 ft 400 kts 51°
2026-05-06 22:59 26.13622 -79.59023 20266 ft 403 kts 51°
2026-05-06 23:00 26.15225 -79.56491 20695 ft 407 kts 51°
2026-05-06 23:00 26.16862 -79.53909 21117 ft 410 kts 51°
2026-05-06 23:00 26.18517 -79.51301 21541 ft 413 kts 50°
2026-05-06 23:00 26.20183 -79.48678 21905 ft 418 kts 50°
2026-05-06 23:01 26.21868 -79.46027 22293 ft 421 kts 50°
2026-05-06 23:01 26.23567 -79.43345 22685 ft 424 kts 50°
2026-05-06 23:01 26.25272 -79.40650 23103 ft 426 kts 50°
2026-05-06 23:01 26.26985 -79.37944 23526 ft 428 kts 49°
2026-05-06 23:02 26.28897 -79.35425 23871 ft 424 kts 39°
2026-05-06 23:02 26.31143 -79.33320 24181 ft 420 kts 30°
2026-05-06 23:02 26.33603 -79.31560 24503 ft 421 kts 27°
2026-05-06 23:02 26.36083 -79.29814 24816 ft 423 kts 27°
2026-05-06 23:03 26.38580 -79.28045 25128 ft 426 kts 27°
2026-05-06 23:03 26.41084 -79.26261 25437 ft 428 kts 28°
2026-05-06 23:03 26.43571 -79.24484 25744 ft 430 kts 28°
2026-05-06 23:03 26.46100 -79.22677 26049 ft 433 kts 28°
2026-05-06 23:04 26.48650 -79.20857 26331 ft 436 kts 27°
2026-05-06 23:04 26.51216 -79.19021 26614 ft 439 kts 27°
2026-05-06 23:04 26.53799 -79.17173 26909 ft 442 kts 27°
2026-05-06 23:04 26.56393 -79.15317 27209 ft 444 kts 27°
2026-05-06 23:05 26.58997 -79.13453 27506 ft 446 kts 27°
2026-05-06 23:05 26.61623 -79.11570 27802 ft 449 kts 27°
2026-05-06 23:05 26.64255 -79.09681 28092 ft 451 kts 27°
2026-05-06 23:05 26.66901 -79.07783 28370 ft 453 kts 27°
2026-05-06 23:06 26.69565 -79.05878 28646 ft 455 kts 27°
2026-05-06 23:06 26.72237 -79.03966 28969 ft 456 kts 27°
2026-05-06 23:06 26.74803 -79.02127 29272 ft 458 kts 27°
2026-05-06 23:06 26.77301 -79.00335 29517 ft 460 kts 27°
2026-05-06 23:07 26.80001 -78.98401 29776 ft 462 kts 27°
2026-05-06 23:07 26.82715 -78.96455 30032 ft 464 kts 27°
2026-05-06 23:07 26.85436 -78.94497 30271 ft 466 kts 27°
2026-05-06 23:07 26.88160 -78.92535 30589 ft 465 kts 27°
2026-05-06 23:08 26.90881 -78.90574 30923 ft 464 kts 27°
2026-05-06 23:08 26.93560 -78.88640 31256 ft 463 kts 27°
2026-05-06 23:08 26.96266 -78.86687 31595 ft 462 kts 27°
2026-05-06 23:08 26.98977 -78.84733 31940 ft 461 kts 27°
2026-05-06 23:09 27.01675 -78.82790 32288 ft 460 kts 27°
2026-05-06 23:09 27.04373 -78.80845 32643 ft 460 kts 26°
2026-05-06 23:09 27.07065 -78.78897 32963 ft 460 kts 26°
2026-05-06 23:09 27.09756 -78.76946 33303 ft 459 kts 26°
2026-05-06 23:10 27.12438 -78.75000 33656 ft 458 kts 26°
2026-05-06 23:10 27.15113 -78.73059 34017 ft 457 kts 26°
2026-05-06 23:10 27.17782 -78.71127 34336 ft 456 kts 26°
2026-05-06 23:10 27.20448 -78.69195 34642 ft 456 kts 26°
2026-05-06 23:11 27.23111 -78.67263 34946 ft 454 kts 26°
2026-05-06 23:11 27.25749 -78.65401 35261 ft 449 kts 22°
2026-05-06 23:11 27.28559 -78.63940 35561 ft 440 kts 13°
2026-05-06 23:11 27.31473 -78.63013 35838 ft 431 kts
2026-05-06 23:12 27.34421 -78.62555 36106 ft 426 kts
2026-05-06 23:12 27.37367 -78.62178 36368 ft 426 kts
2026-05-06 23:12 27.40314 -78.61796 36627 ft 425 kts
2026-05-06 23:12 27.43249 -78.61415 36881 ft 424 kts
2026-05-06 23:13 27.46182 -78.61034 37051 ft 424 kts
2026-05-06 23:13 27.52026 -78.60278 37091 ft 424 kts
2026-05-06 23:14 27.57894 -78.59520 37089 ft 424 kts
2026-05-06 23:14 27.63760 -78.58754 37094 ft 425 kts
2026-05-06 23:15 27.69639 -78.57981 37092 ft 425 kts
2026-05-06 23:15 27.75523 -78.57212 37098 ft 426 kts
2026-05-06 23:16 27.81408 -78.56448 37102 ft 426 kts
2026-05-06 23:16 27.87297 -78.55683 37108 ft 426 kts
2026-05-06 23:17 27.93188 -78.54917 37116 ft 426 kts 360°
2026-05-06 23:17 27.99085 -78.54148 37110 ft 426 kts 360°
2026-05-06 23:18 28.04948 -78.53378 37107 ft 426 kts 360°
2026-05-06 23:18 28.10849 -78.52602 37104 ft 426 kts 360°
2026-05-06 23:19 28.16737 -78.51820 37106 ft 426 kts
2026-05-06 23:19 28.22631 -78.51042 37114 ft 426 kts 359°
2026-05-06 23:20 28.28527 -78.50278 37113 ft 426 kts 359°
2026-05-06 23:20 28.34421 -78.49509 37110 ft 426 kts 359°
2026-05-06 23:21 28.40313 -78.48731 37105 ft 426 kts 359°
2026-05-06 23:21 28.46208 -78.47948 37104 ft 426 kts 360°
2026-05-06 23:22 28.52070 -78.47164 37117 ft 426 kts 359°
2026-05-06 23:22 28.57962 -78.46390 37113 ft 426 kts 359°
2026-05-06 23:23 28.63856 -78.45614 37108 ft 426 kts 359°
2026-05-06 23:23 28.69740 -78.44833 37105 ft 426 kts 359°
2026-05-06 23:24 28.75632 -78.44055 37122 ft 426 kts 359°
2026-05-06 23:24 28.81518 -78.43270 37114 ft 425 kts 359°
2026-05-06 23:25 28.87400 -78.42484 37105 ft 425 kts 359°
2026-05-06 23:25 28.93278 -78.41697 37101 ft 425 kts 359°
2026-05-06 23:26 28.99160 -78.40916 37101 ft 425 kts 359°
2026-05-06 23:26 29.05038 -78.40132 37129 ft 425 kts 358°
2026-05-06 23:27 29.10923 -78.39349 37121 ft 425 kts 358°
2026-05-06 23:27 29.16764 -78.38569 37116 ft 425 kts 358°
2026-05-06 23:28 29.22636 -78.37779 37114 ft 425 kts 358°
2026-05-06 23:28 29.28516 -78.36989 37112 ft 425 kts 358°
2026-05-06 23:29 29.34403 -78.36198 37131 ft 425 kts 358°
2026-05-06 23:29 29.40276 -78.35407 37124 ft 425 kts 358°
2026-05-06 23:30 29.46146 -78.34627 37115 ft 422 kts 355°
2026-05-06 23:30 29.49038 -78.34670 37115 ft 411 kts 346°
2026-05-06 23:30 29.51813 -78.35279 37113 ft 402 kts 337°
2026-05-06 23:31 29.57179 -78.37049 37103 ft 402 kts 337°
2026-05-06 23:31 29.62558 -78.38802 37128 ft 402 kts 337°
2026-05-06 23:32 29.67908 -78.40536 37124 ft 402 kts 337°
2026-05-06 23:32 29.73287 -78.42281 37121 ft 401 kts 337°
2026-05-06 23:33 29.78657 -78.44032 37120 ft 401 kts 337°
2026-05-06 23:33 29.84030 -78.45787 37118 ft 401 kts 337°
2026-05-06 23:34 29.89404 -78.47544 37145 ft 401 kts 337°
2026-05-06 23:34 29.94786 -78.49307 37136 ft 401 kts 337°
2026-05-06 23:35 30.00150 -78.51062 37129 ft 401 kts 337°
2026-05-06 23:35 30.05494 -78.52811 37125 ft 401 kts 337°
2026-05-06 23:36 30.10857 -78.54571 37120 ft 401 kts 337°
2026-05-06 23:36 30.16415 -78.55637 37115 ft 417 kts 353°
2026-05-06 23:37 30.22273 -78.54874 37114 ft 424 kts 358°
2026-05-06 23:37 30.28134 -78.54028 37112 ft 424 kts 358°
2026-05-06 23:38 30.33994 -78.53195 37109 ft 424 kts 358°
2026-05-06 23:38 30.39859 -78.52362 37108 ft 424 kts 358°
2026-05-06 23:39 30.45720 -78.51496 37120 ft 425 kts 358°
2026-05-06 23:39 30.51555 -78.50538 37117 ft 426 kts 359°
2026-05-06 23:40 30.57422 -78.49556 37112 ft 425 kts 359°
2026-05-06 23:40 30.62296 -78.48752 37106 ft 425 kts 358°
2026-05-06 23:41 30.69120 -78.47649 37111 ft 425 kts 358°
2026-05-06 23:41 30.74037 -78.46853 37138 ft 425 kts 358°
2026-05-06 23:42 30.79861 -78.45909 37119 ft 425 kts 358°
2026-05-06 23:42 30.85723 -78.44955 37115 ft 425 kts 358°
2026-05-06 23:43 30.91586 -78.43990 37115 ft 425 kts 358°
2026-05-06 23:43 30.97447 -78.43032 37112 ft 425 kts 358°
2026-05-06 23:44 31.03315 -78.42074 37124 ft 425 kts 358°
2026-05-06 23:44 31.09180 -78.41113 37117 ft 425 kts 358°
2026-05-06 23:45 31.15010 -78.40159 37108 ft 425 kts 358°
2026-05-06 23:45 31.20873 -78.39199 37109 ft 425 kts 358°
2026-05-06 23:46 31.26740 -78.38234 37110 ft 425 kts 358°
2026-05-06 23:46 31.32613 -78.37270 37119 ft 426 kts 357°
2026-05-06 23:47 31.38478 -78.36305 37110 ft 426 kts 358°
2026-05-06 23:47 31.44356 -78.35327 37104 ft 426 kts 358°
2026-05-06 23:48 31.50229 -78.34359 37104 ft 426 kts 358°
2026-05-06 23:48 31.56104 -78.33394 37127 ft 426 kts 357°
2026-05-06 23:49 31.61995 -78.32419 37112 ft 427 kts 357°
2026-05-06 23:49 31.67850 -78.31450 37107 ft 427 kts 357°
2026-05-06 23:50 31.73749 -78.30467 37103 ft 428 kts 357°
2026-05-06 23:50 31.82600 -78.28997 37113 ft 428 kts 357°
2026-05-06 23:51 31.88485 -78.28018 37100 ft 428 kts 357°
2026-05-06 23:51 31.94370 -78.27030 37097 ft 429 kts 357°
2026-05-06 23:52 32.00307 -78.26037 37103 ft 429 kts 357°
2026-05-06 23:52 32.06182 -78.25092 37099 ft 428 kts 356°
2026-05-06 23:53 32.12088 -78.24247 37102 ft 427 kts 355°
2026-05-06 23:53 32.17995 -78.23418 37097 ft 427 kts 355°
2026-05-06 23:54 32.23903 -78.22563 37095 ft 428 kts 356°
2026-05-06 23:54 32.29824 -78.21687 37087 ft 428 kts 356°
2026-05-06 23:55 32.35730 -78.20823 37111 ft 428 kts 355°
2026-05-06 23:55 32.41604 -78.19962 37100 ft 427 kts 355°
2026-05-06 23:56 32.47514 -78.19087 37098 ft 427 kts 355°
2026-05-06 23:56 32.53410 -78.18220 37092 ft 427 kts 355°
2026-05-06 23:57 32.59311 -78.17356 37091 ft 427 kts 355°
2026-05-06 23:57 32.65211 -78.16486 37099 ft 427 kts 355°
2026-05-06 23:58 32.71113 -78.15612 37085 ft 427 kts 355°
2026-05-06 23:58 32.76973 -78.14746 37081 ft 427 kts 355°
2026-05-06 23:59 32.82871 -78.13882 37075 ft 426 kts 355°
2026-05-06 23:59 32.88765 -78.13007 37074 ft 427 kts 355°
2026-05-07 00:00 32.94658 -78.12124 37070 ft 427 kts 355°
2026-05-07 00:00 33.00547 -78.11246 37071 ft 426 kts 355°
2026-05-07 00:01 33.06438 -78.10371 37070 ft 426 kts 355°
2026-05-07 00:01 33.12292 -78.09504 37102 ft 426 kts 355°
2026-05-07 00:02 33.18179 -78.08620 37080 ft 426 kts 355°
2026-05-07 00:02 33.24071 -78.07736 37067 ft 426 kts 355°
2026-05-07 00:03 33.29969 -78.06855 37062 ft 427 kts 355°
2026-05-07 00:03 33.35868 -78.05972 37057 ft 427 kts 355°
2026-05-07 00:04 33.41733 -78.05089 37074 ft 427 kts 355°
2026-05-07 00:04 33.47632 -78.04198 37060 ft 427 kts 355°
2026-05-07 00:05 33.53537 -78.03311 37054 ft 427 kts 355°
2026-05-07 00:05 33.59440 -78.02430 37052 ft 427 kts 355°
2026-05-07 00:06 33.65346 -78.01538 37055 ft 427 kts 355°
2026-05-07 00:06 33.71244 -78.00646 37048 ft 427 kts 355°
2026-05-07 00:07 33.77104 -77.99758 37039 ft 427 kts 355°
2026-05-07 00:07 33.83013 -77.98865 37037 ft 427 kts 355°
2026-05-07 00:08 33.88909 -77.97966 37061 ft 427 kts 354°
2026-05-07 00:08 33.94793 -77.97132 37053 ft 425 kts 354°
2026-05-07 00:09 34.00679 -77.96340 37050 ft 425 kts 354°
2026-05-07 00:09 34.06558 -77.95544 37045 ft 425 kts 354°
2026-05-07 00:10 34.12392 -77.94735 37040 ft 424 kts 354°
2026-05-07 00:10 34.18247 -77.93912 37056 ft 423 kts 354°
2026-05-07 00:11 34.24093 -77.93097 37044 ft 422 kts 354°
2026-05-07 00:11 34.29928 -77.92288 37037 ft 422 kts 354°
2026-05-07 00:12 34.35762 -77.91481 37031 ft 421 kts 354°
2026-05-07 00:12 34.41594 -77.90673 37052 ft 421 kts 353°
2026-05-07 00:13 34.47387 -77.89865 37025 ft 422 kts 353°
2026-05-07 00:13 34.53228 -77.89041 37002 ft 422 kts 353°
2026-05-07 00:14 34.59065 -77.88211 36994 ft 422 kts 353°
2026-05-07 00:14 34.64902 -77.87389 37024 ft 422 kts 353°
2026-05-07 00:15 34.67828 -77.86981 36858 ft 424 kts 353°
2026-05-07 00:15 34.70759 -77.86573 36599 ft 425 kts 353°
2026-05-07 00:15 34.73701 -77.86163 36098 ft 427 kts 354°
2026-05-07 00:15 34.76668 -77.85749 35291 ft 430 kts 355°
2026-05-07 00:16 34.79661 -77.85329 34425 ft 436 kts 356°
2026-05-07 00:16 34.82691 -77.84900 33576 ft 440 kts 356°
2026-05-07 00:16 34.85756 -77.84464 32560 ft 446 kts 358°
2026-05-07 00:16 34.88855 -77.84028 31503 ft 452 kts 359°
2026-05-07 00:17 34.92008 -77.83586 30509 ft 459 kts
2026-05-07 00:17 34.95207 -77.83134 29287 ft 467 kts
2026-05-07 00:17 34.98424 -77.82669 28680 ft 461 kts
2026-05-07 00:17 35.01544 -77.82208 28004 ft 456 kts
2026-05-07 00:18 35.04682 -77.81747 27306 ft 452 kts
2026-05-07 00:18 35.07789 -77.81299 26624 ft 448 kts
2026-05-07 00:18 35.10871 -77.80860 25961 ft 444 kts
2026-05-07 00:18 35.13937 -77.80427 25310 ft 441 kts
2026-05-07 00:19 35.16980 -77.80000 24634 ft 438 kts
2026-05-07 00:19 35.19965 -77.79580 23990 ft 435 kts
2026-05-07 00:19 35.22969 -77.79153 23305 ft 433 kts
2026-05-07 00:19 35.25945 -77.78725 22664 ft 428 kts
2026-05-07 00:20 35.28881 -77.78298 22094 ft 422 kts
2026-05-07 00:20 35.31786 -77.77877 21530 ft 417 kts
2026-05-07 00:20 35.34652 -77.77465 21007 ft 413 kts
2026-05-07 00:20 35.37488 -77.77060 20486 ft 409 kts
2026-05-07 00:21 35.40283 -77.76998 19994 ft 395 kts 347°
2026-05-07 00:21 35.42908 -77.77746 19517 ft 382 kts 334°
2026-05-07 00:21 35.45242 -77.79200 19049 ft 371 kts 321°
2026-05-07 00:21 35.47180 -77.81227 18577 ft 362 kts 309°
2026-05-07 00:22 35.48656 -77.83695 18093 ft 355 kts 297°
2026-05-07 00:22 35.49758 -77.86336 17627 ft 350 kts 295°
2026-05-07 00:22 35.50849 -77.88985 17149 ft 345 kts 295°
2026-05-07 00:22 35.51932 -77.91602 16681 ft 341 kts 295°
2026-05-07 00:23 35.53001 -77.94182 16208 ft 337 kts 295°
2026-05-07 00:23 35.54061 -77.96744 15725 ft 334 kts 295°
2026-05-07 00:23 35.55105 -77.99280 15195 ft 333 kts 295°
2026-05-07 00:23 35.56149 -78.01819 14643 ft 333 kts 295°
2026-05-07 00:24 35.57195 -78.04361 14114 ft 332 kts 295°
2026-05-07 00:24 35.58235 -78.06891 13553 ft 331 kts 295°
2026-05-07 00:24 35.59270 -78.09416 12985 ft 329 kts 294°
2026-05-07 00:24 35.60297 -78.11917 12506 ft 325 kts 294°
2026-05-07 00:25 35.61284 -78.14315 12374 ft 311 kts 294°
2026-05-07 00:25 35.62237 -78.16638 12243 ft 298 kts 294°
2026-05-07 00:25 35.63150 -78.18869 12118 ft 286 kts 294°
2026-05-07 00:25 35.63747 -78.20329 12031 ft 279 kts 294°
2026-05-07 00:26 35.64883 -78.23110 11706 ft 272 kts 293°
2026-05-07 00:26 35.65728 -78.25180 11467 ft 269 kts 294°
2026-05-07 00:26 35.66614 -78.27204 11232 ft 268 kts 296°
2026-05-07 00:26 35.67543 -78.29187 11006 ft 268 kts 296°
2026-05-07 00:27 35.68487 -78.31164 10709 ft 268 kts 296°
2026-05-07 00:27 35.69111 -78.32471 10470 ft 268 kts 296°
2026-05-07 00:27 35.70050 -78.34444 10098 ft 267 kts 296°
2026-05-07 00:27 35.70986 -78.36420 9709 ft 267 kts 295°
2026-05-07 00:28 35.71914 -78.38388 9311 ft 265 kts 295°
2026-05-07 00:28 35.72881 -78.40313 8938 ft 266 kts 303°
2026-05-07 00:28 35.74077 -78.42042 8668 ft 264 kts 306°
2026-05-07 00:28 35.75273 -78.43757 8403 ft 262 kts 306°
2026-05-07 00:29 35.76456 -78.45460 8136 ft 261 kts 306°
2026-05-07 00:29 35.77635 -78.47158 7862 ft 260 kts 306°
2026-05-07 00:30 35.81133 -78.52212 7054 ft 257 kts 306°
2026-05-07 00:30 35.82280 -78.53864 6788 ft 256 kts 307°
2026-05-07 00:30 35.83657 -78.55292 6515 ft 262 kts 322°
2026-05-07 00:30 35.85230 -78.56365 6344 ft 252 kts 325°
2026-05-07 00:31 35.86734 -78.57376 6230 ft 241 kts 324°
2026-05-07 00:31 35.88165 -78.58343 6101 ft 229 kts 324°
2026-05-07 00:31 35.89623 -78.59084 5937 ft 230 kts 343°
2026-05-07 00:31 35.91234 -78.58891 5665 ft 242 kts 16°
2026-05-07 00:32 35.92613 -78.57650 5346 ft 251 kts 41°
2026-05-07 00:32 35.93829 -78.56133 5051 ft 250 kts 41°
2026-05-07 00:32 35.95050 -78.54609 5005 ft 250 kts 41°
2026-05-07 00:32 35.96287 -78.53080 5011 ft 253 kts 41°
2026-05-07 00:33 35.97543 -78.51540 5009 ft 255 kts 41°
2026-05-07 00:33 35.98804 -78.49998 5013 ft 255 kts 41°
2026-05-07 00:33 36.00067 -78.48463 5012 ft 254 kts 38°
2026-05-07 00:33 36.01554 -78.47397 5013 ft 242 kts
2026-05-07 00:34 36.03200 -78.47227 5018 ft 235 kts 352°
2026-05-07 00:34 36.04810 -78.47271 5015 ft 234 kts 351°
2026-05-07 00:34 36.06433 -78.47347 5014 ft 233 kts 350°
2026-05-07 00:34 36.08060 -78.47426 5014 ft 233 kts 349°
2026-05-07 00:35 36.09558 -78.47964 5009 ft 220 kts 319°
2026-05-07 00:35 36.10488 -78.49341 4964 ft 205 kts 287°
2026-05-07 00:35 36.10644 -78.51039 4653 ft 199 kts 264°
2026-05-07 00:35 36.10488 -78.52751 4283 ft 200 kts 261°
2026-05-07 00:36 36.10308 -78.54445 4074 ft 197 kts 261°
2026-05-07 00:36 36.10123 -78.56114 3951 ft 199 kts 261°
2026-05-07 00:36 36.09832 -78.57789 3823 ft 200 kts 244°
2026-05-07 00:36 36.08879 -78.59022 3694 ft 205 kts 211°
2026-05-07 00:37 36.07519 -78.59630 3549 ft 208 kts 201°
2026-05-07 00:37 36.06146 -78.60135 3395 ft 202 kts 200°
2026-05-07 00:37 36.04804 -78.60591 3292 ft 199 kts 200°
2026-05-07 00:37 36.03500 -78.61021 3169 ft 189 kts 201°
2026-05-07 00:38 36.02352 -78.61681 3115 ft 177 kts 220°
2026-05-07 00:38 36.01468 -78.62689 3092 ft 174 kts 226°
2026-05-07 00:38 36.00629 -78.63759 3041 ft 172 kts 229°
2026-05-07 00:38 35.99820 -78.64849 3029 ft 172 kts 229°
2026-05-07 00:39 35.98975 -78.65902 2995 ft 173 kts 227°
2026-05-07 00:39 35.98152 -78.66900 3039 ft 162 kts 226°
2026-05-07 00:39 35.97370 -78.67861 2879 ft 160 kts 228°
2026-05-07 00:39 35.96603 -78.68846 2702 ft 158 kts 229°
2026-05-07 00:40 35.95864 -78.69826 2453 ft 154 kts 228°
2026-05-07 00:40 35.95115 -78.70747 2142 ft 149 kts 225°
2026-05-07 00:40 35.94403 -78.71601 1942 ft 135 kts 226°
2026-05-07 00:40 35.93741 -78.72404 1749 ft 130 kts 226°
2026-05-07 00:41 35.93113 -78.73193 1522 ft 128 kts 228°
2026-05-07 00:41 35.92504 -78.73964 1301 ft 126 kts 225°
2026-05-07 00:41 35.91875 -78.74721 1111 ft 126 kts 225°
2026-05-07 00:41 35.91259 -78.75496 936 ft 128 kts 225°
2026-05-07 00:42 35.90632 -78.76258 754 ft 127 kts 225°
2026-05-07 00:42 35.90005 -78.77037 613 ft 129 kts 224°
2026-05-07 00:42 35.89375 -78.77815 432 ft 128 kts 225°
2026-05-07 00:42 35.88808 -78.78516 391 ft 86 kts 225°
2026-05-07 00:43 35.88523 -78.78866 391 ft 48 kts 225°
2026-05-07 00:43 35.88341 -78.79071 391 ft 20 kts 199°
2026-05-07 00:43 35.88255 -78.79045 391 ft 10 kts 133°
2026-05-07 00:43 35.88219 -78.79050 391 ft 0 kts 228°
2026-05-07 00:44 35.88216 -78.79054 391 ft 3 kts 228°
2026-05-07 00:44 35.88192 -78.79086 391 ft 7 kts 227°
2026-05-07 00:45 35.88144 -78.79144 392 ft 12 kts 223°
2026-05-07 00:45 35.88076 -78.79228 392 ft 15 kts 225°
2026-05-07 00:45 35.88002 -78.79320 392 ft 13 kts 225°
2026-05-07 00:45 35.87987 -78.79338 392 ft 0 kts 225°
2026-05-07 00:48 35.87983 -78.79342 392 ft 2 kts 224°
2026-05-07 00:48 35.87969 -78.79359 392 ft 5 kts 220°
2026-05-07 00:48 35.87925 -78.79345 392 ft 10 kts 147°
2026-05-07 00:49 35.87869 -78.79381 392 ft 10 kts 227°
2026-05-07 00:49 35.87814 -78.79447 392 ft 12 kts 224°
2026-05-07 00:49 35.87766 -78.79492 392 ft 6 kts 183°
2026-05-07 00:49 35.87735 -78.79460 392 ft 2 kts 136°
2026-05-07 00:50 35.87726 -78.79448 392 ft 2 kts 133°
2026-05-07 00:50 35.87725 -78.79447 392 ft 0 kts 134°